FW8055 Weather Reports


time (UTC)temp
F
wind
direction
speed
knots
gust
knots
rain 1hr
in
rain 24hr
in
rain mn
in
humidity
%
barometer
mb
20260510204544 69 204 0.0 3.5 0.00 0.00 0.00 58 1020.2
20260510203045 67 221 0.0 1.7 0.00 0.00 0.00 60 1020.1
20260510201542 65 5 1.7 4.3 0.00 0.00 0.00 61 1020.3
20260510200047 65 245 0.9 3.5 0.00 0.00 0.00 62 1020.5
20260510194542 65 0 0.0 2.6 0.00 0.00 0.00 63 1020.7
20260510193043 64 0 0.0 3.5 0.00 0.00 0.00 64 1020.6
20260510191542 63 20 0.9 3.5 0.00 0.00 0.00 66 1020.5
20260510190057 62 232 0.0 3.5 0.00 0.00 0.00 68 1020.5
20260510184545 61 0 0.0 3.5 0.00 0.00 0.00 71 1020.6
20260510183044 60 0 0.0 2.6 0.00 0.00 0.00 73 1020.6
20260510181552 59 0 0.0 2.6 0.00 0.00 0.00 73 1020.6
20260510180138 59 0 0.0 2.6 0.00 0.00 0.00 74 1020.4
20260510174558 59 0 0.0 2.6 0.00 0.00 0.00 74 1020.4
20260510173053 58 0 0.0 1.7 0.00 0.00 0.00 76 1020.3
20260510171607 58 5 0.0 2.6 0.00 0.00 0.00 76 1020.1
20260510170052 57 248 0.0 2.6 0.00 0.00 0.00 77 1020.0
20260510164557 56 0 0.9 2.6 0.00 0.00 0.00 77 1020.0
20260510163054 56 0 0.0 2.6 0.00 0.00 0.00 77 1019.9
20260510161542 56 29 0.0 2.6 0.00 0.00 0.00 78 1019.8
20260510160047 56 0 0.0 2.6 0.00 0.00 0.00 80 1019.8
20260510154543 55 49 0.0 3.5 0.00 0.00 0.00 80 1019.8
20260510153051 55 0 0.0 3.5 0.00 0.00 0.00 79 1019.5
20260510151544 55 0 0.0 1.7 0.00 0.00 0.00 81 1019.5
20260510150051 54 71 0.0 4.3 0.00 0.00 0.00 82 1019.5
20260510144557 54 0 0.0 1.7 0.00 0.00 0.00 82 1019.3
20260510143051 54 217 0.0 0.0 0.00 0.00 0.00 85 1019.0
20260510141546 53 0 0.0 0.0 0.00 0.00 0.00 86 1019.0
20260510140045 52 0 0.0 0.0 0.00 0.00 0.00 87 1018.8
20260510134550 52 0 0.0 1.7 0.00 0.00 0.00 89 1018.6
20260510133047 51 0 0.0 1.7 0.00 0.00 0.00 88 1018.7
20260510131547 51 0 0.0 0.0 0.00 0.00 0.00 88 1018.8
20260510130046 52 0 0.0 0.0 0.00 0.00 0.00 87 1018.7
20260510124542 52 0 0.0 0.9 0.00 0.00 0.00 86 1018.5
20260510123045 52 0 0.0 1.7 0.00 0.00 0.00 86 1018.4
20260510121542 52 0 0.0 1.7 0.00 0.00 0.00 86 1018.5
20260510120046 52 0 0.0 0.9 0.00 0.00 0.00 87 1018.4
20260510114556 52 92 0.0 0.9 0.00 0.00 0.00 88 1018.4
20260510113047 52 0 0.0 1.7 0.00 0.00 0.00 87 1018.3
20260510111543 52 0 0.0 0.0 0.00 0.00 0.00 87 1018.0
20260510104548 52 0 0.0 0.9 0.00 0.00 0.00 87 1017.9
20260510103052 52 0 0.0 0.9 0.00 0.00 0.00 88 1017.6
20260510101558 51 95 0.0 0.0 0.00 0.00 0.00 89 1017.8
20260510100054 52 0 0.0 0.0 0.00 0.00 0.00 88 1017.4
20260510094549 52 0 0.0 0.9 0.00 0.00 0.00 87 1017.2
20260510093051 52 0 0.0 0.0 0.00 0.00 0.00 87 1017.2
20260510091546 52 0 0.0 0.0 0.00 0.00 0.00 87 1016.9
20260510090048 52 0 0.0 0.9 0.00 0.00 0.00 87 1017.1
20260510084601 53 0 0.0 0.9 0.00 0.00 0.00 86 1017.0
20260510083043 53 0 0.0 0.0 0.00 0.00 0.00 86 1017.1
20260510081544 53 0 0.0 0.0 0.00 0.00 0.00 85 1016.7
20260510080100 53 0 0.0 0.9 0.00 0.00 0.00 84 1016.9
20260510074544 54 0 0.0 0.0 0.00 0.00 0.00 84 1017.0
20260510073053 54 0 0.0 0.0 0.00 0.00 0.00 83 1017.1
20260510071547 54 0 0.0 0.0 0.00 0.00 0.00 82 1017.0
20260510070050 55 0 0.0 0.0 0.00 0.00 0.00 81 1016.8
20260510064552 55 0 0.0 0.0 0.00 0.00 0.00 80 1016.6
20260510063043 56 0 0.0 0.9 0.00 0.00 0.00 78 1016.6
20260510061549 56 0 0.0 0.0 0.00 0.00 0.00 77 1016.5
20260510060050 56 0 0.0 0.9 0.00 0.00 0.00 75 1016.4
20260510054546 57 0 0.0 0.9 0.00 0.00 0.00 74 1016.4
20260510053048 57 0 0.0 1.7 0.00 0.00 0.00 72 1016.4
20260510051546 58 0 0.0 0.0 0.00 0.00 0.00 70 1016.3
20260510050055 59 0 0.0 0.0 0.00 0.00 0.00 67 1016.2
20260510044549 59 0 0.0 0.0 0.00 0.00 0.00 66 1016.1
20260510043048 60 0 0.0 0.0 0.00 0.00 0.00 64 1016.0
20260510041546 62 0 0.0 0.0 0.00 0.00 0.00 64 1015.8
20260510040055 63 0 0.0 0.0 0.00 0.00 0.00 62 1015.6
20260510034544 64 0 0.0 0.0 0.00 0.00 0.00 61 1015.3
20260510033053 66 0 0.0 0.0 0.00 0.00 0.00 55 1015.3
20260510031548 67 0 0.0 0.0 0.00 0.00 0.00 49 1015.1
20260510024543 70 0 0.0 0.0 0.00 0.00 0.00 43 1014.7
20260510023044 72 0 0.0 1.7 0.00 0.00 0.00 40 1014.7
20260510021635 74 0 0.0 1.7 0.00 0.00 0.00 37 1015.0
20260510020047 74 0 0.0 1.7 0.00 0.00 0.00 32 1015.0
20260510014557 75 342 0.0 2.6 0.00 0.00 0.00 31 1015.1
20260510013057 75 0 0.0 2.6 0.00 0.00 0.00 34 1015.2
20260510011546 75 0 0.0 2.6 0.00 0.00 0.00 34 1015.2
20260510010054 76 33 0.9 3.5 0.00 0.00 0.00 33 1015.4
20260510004544 75 11 0.0 2.6 0.00 0.00 0.00 33 1015.4
20260510003043 75 324 0.9 3.5 0.00 0.00 0.00 38 1015.4
20260510001544 76 360 1.7 7.8 0.00 0.00 0.00 41 1015.4
20260510000050 76 333 0.9 5.2 0.00 0.00 0.00 43 1015.4
20260509234545 75 229 0.9 7.8 0.00 0.00 0.00 47 1015.5
20260509233043 75 350 1.7 8.7 0.00 0.00 0.00 44 1015.7
20260509231547 75 15 0.9 7.0 0.00 0.00 0.00 49 1015.8
20260509230049 74 350 1.7 7.8 0.00 0.00 0.00 47 1015.9
20260509224548 75 0 0.9 4.3 0.00 0.00 0.00 48 1016.1
20260509223048 75 350 1.7 7.0 0.00 0.00 0.00 49 1016.3
20260509221548 75 352 0.9 7.0 0.00 0.00 0.00 53 1016.5
20260509220050 74 352 2.6 8.7 0.00 0.00 0.00 52 1016.7
20260509214547 74 24 2.6 7.0 0.00 0.00 0.00 53 1017.1
20260509213102 74 17 1.7 7.0 0.00 0.00 0.00 53 1017.3
20260509211542 73 336 3.5 7.8 0.00 0.00 0.00 54 1017.3
20260509210050 72 29 1.7 7.8 0.00 0.00 0.00 57 1017.4